When you browse on this site, cookies collect data to enhance your experience and personalize the content and advertising you see.
Visit our Privacy Policy to learn more. By continuing to use the site, you agree to this use of cookies and data.
  • en France
  • Liste des pays
  • À 7 jours
  • Température de l'eau
  • Carte satellitaire
  • Carte météo
  • Widgets météo
  • user-avatar
    Se connecter

    Météo par heure à Perth

    Ce jour, 25 Mai, Samedi

    Heure Température Précipitation Vent Pression Humidité
    00:00 +15°C° 0 mm 2 m/s 767 mmHg 83%
    01:00 +15°C° 0 mm 2 m/s 767 mmHg 84%
    02:00 +15°C° 0 mm 2 m/s 766 mmHg 86%
    03:00 +14°C° 0 mm 2 m/s 766 mmHg 86%
    04:00 +14°C° 0 mm 2 m/s 767 mmHg 86%
    05:00 +14°C° 0 mm 2 m/s 767 mmHg 86%
    06:00 +13°C° 0 mm 3 m/s 767 mmHg 85%
    07:00 +13°C° 0 mm 3 m/s 767 mmHg 84%
    08:00 +13°C° 0 mm 3 m/s 767 mmHg 83%
    09:00 +16°C° 0 mm 3 m/s 767 mmHg 74%
    10:00 +18°C° 0 mm 3 m/s 767 mmHg 65%
    11:00 +20°C° 0 mm 2 m/s 767 mmHg 56%
    12:00 +21°C° 0 mm 2 m/s 766 mmHg 52%
    13:00 +23°C° 0 mm 2 m/s 766 mmHg 48%
    14:00 +24°C° 0 mm 2 m/s 765 mmHg 43%
    15:00 +23°C° 0 mm 2 m/s 765 mmHg 47%
    16:00 +21°C° 0 mm 2 m/s 765 mmHg 50%
    17:00 +20°C° 0 mm 2 m/s 765 mmHg 54%
    18:00 +19°C° 0 mm 2 m/s 766 mmHg 58%
    19:00 +18°C° 0 mm 3 m/s 766 mmHg 62%
    20:00 +17°C° 0 mm 3 m/s 766 mmHg 66%
    21:00 +16°C° 0 mm 3 m/s 766 mmHg 66%
    22:00 +16°C° 0 mm 3 m/s 766 mmHg 65%
    23:00 +14°C° 0 mm 3 m/s 767 mmHg 65%

    Demain, 26 Mai, Dimanche

    Heure Température Précipitation Vent Pression Humidité
    00:00 +14°C° 0 mm 3 m/s 767 mmHg 65%
    01:00 +14°C° 0 mm 3 m/s 767 mmHg 65%
    02:00 +14°C° 0 mm 3 m/s 767 mmHg 66%
    03:00 +14°C° 0 mm 3 m/s 766 mmHg 67%
    04:00 +13°C° 0 mm 4 m/s 766 mmHg 67%
    05:00 +13°C° 0 mm 4 m/s 766 mmHg 68%
    06:00 +13°C° 0 mm 4 m/s 766 mmHg 69%
    07:00 +13°C° 0 mm 4 m/s 767 mmHg 70%
    08:00 +13°C° 0 mm 4 m/s 767 mmHg 71%
    09:00 +15°C° 0 mm 4 m/s 767 mmHg 64%
    10:00 +18°C° 0 mm 4 m/s 767 mmHg 57%
    11:00 +20°C° 0 mm 4 m/s 767 mmHg 50%
    12:00 +21°C° 0 mm 4 m/s 766 mmHg 47%
    13:00 +22°C° 0 mm 4 m/s 766 mmHg 44%
    14:00 +24°C° 0 mm 3 m/s 765 mmHg 41%
    15:00 +22°C° 0 mm 3 m/s 765 mmHg 43%
    16:00 +21°C° 0 mm 3 m/s 765 mmHg 45%
    17:00 +21°C° 0 mm 3 m/s 766 mmHg 48%
    18:00 +20°C° 0 mm 4 m/s 766 mmHg 50%
    19:00 +19°C° 0 mm 4 m/s 766 mmHg 52%
    20:00 +17°C° 0 mm 5 m/s 767 mmHg 54%
    21:00 +16°C° 0 mm 5 m/s 767 mmHg 54%
    22:00 +16°C° 0 mm 5 m/s 767 mmHg 54%
    23:00 +16°C° 0 mm 6 m/s 767 mmHg 54%

    Après-demain, 27 Mai, Lundi

    Heure Température Précipitation Vent Pression Humidité
    00:00 +15°C° 0 mm 6 m/s 767 mmHg 55%
    01:00 +15°C° 0 mm 6 m/s 767 mmHg 57%
    02:00 +14°C° 0 mm 6 m/s 767 mmHg 58%
    03:00 +14°C° 0 mm 6 m/s 767 mmHg 60%
    04:00 +14°C° 0 mm 6 m/s 767 mmHg 62%
    05:00 +13°C° 0 mm 6 m/s 767 mmHg 63%
    06:00 +13°C° 0 mm 6 m/s 767 mmHg 64%
    07:00 +13°C° 0 mm 6 m/s 767 mmHg 65%
    08:00 +13°C° 0 mm 6 m/s 768 mmHg 66%
    09:00 +15°C° 0 mm 6 m/s 767 mmHg 60%
    10:00 +17°C° 0 mm 6 m/s 767 mmHg 53%
    11:00 +20°C° 0 mm 6 m/s 767 mmHg 47%
    12:00 +21°C° 0 mm 6 m/s 767 mmHg 44%
    13:00 +22°C° 0 mm 5 m/s 766 mmHg 40%
    14:00 +25°C° 0 mm 5 m/s 765 mmHg 37%
    15:00 +23°C° 0 mm 5 m/s 765 mmHg 39%
    16:00 +22°C° 0 mm 5 m/s 765 mmHg 41%
    17:00 +21°C° 0 mm 4 m/s 765 mmHg 42%
    18:00 +21°C° 0 mm 5 m/s 765 mmHg 43%
    19:00 +20°C° 0 mm 5 m/s 766 mmHg 43%
    20:00 +19°C° 0 mm 6 m/s 766 mmHg 44%
    21:00 +19°C° 0 mm 6 m/s 766 mmHg 44%
    22:00 +19°C° 0 mm 6 m/s 766 mmHg 43%
    23:00 +17°C° 0 mm 6 m/s 766 mmHg 43%

    28 Mai, Mardi

    Heure Température Précipitation Vent Pression Humidité
    00:00 +17°C° 0 mm 6 m/s 766 mmHg 44%
    01:00 +17°C° 0 mm 6 m/s 765 mmHg 45%
    02:00 +16°C° 0 mm 6 m/s 765 mmHg 46%
    03:00 +16°C° 0 mm 6 m/s 765 mmHg 48%
    04:00 +16°C° 0 mm 6 m/s 765 mmHg 49%
    05:00 +15°C° 0 mm 6 m/s 765 mmHg 50%
    06:00 +15°C° 0 mm 6 m/s 765 mmHg 50%
    07:00 +16°C° 0 mm 6 m/s 766 mmHg 50%
    08:00 +16°C° 0 mm 6 m/s 766 mmHg 50%
    09:00 +17°C° 0 mm 6 m/s 766 mmHg 47%
    10:00 +20°C° 0 mm 6 m/s 766 mmHg 43%
    11:00 +22°C° 0 mm 6 m/s 765 mmHg 40%
    12:00 +23°C° 0 mm 6 m/s 765 mmHg 38%
    13:00 +25°C° 0 mm 5 m/s 764 mmHg 37%
    14:00 +26°C° 0 mm 5 m/s 763 mmHg 35%
    15:00 +26°C° 0 mm 5 m/s 764 mmHg 37%
    16:00 +25°C° 0 mm 4 m/s 764 mmHg 39%
    17:00 +23°C° 0 mm 4 m/s 764 mmHg 40%
    18:00 +23°C° 0 mm 4 m/s 764 mmHg 41%
    19:00 +22°C° 0 mm 5 m/s 764 mmHg 41%
    20:00 +21°C° 0 mm 5 m/s 765 mmHg 42%
    21:00 +21°C° 0 mm 5 m/s 765 mmHg 40%
    22:00 +20°C° 0 mm 6 m/s 765 mmHg 38%
    23:00 +20°C° 0 mm 6 m/s 765 mmHg 37%

    29 Mai, Mercredi

    Heure Température Précipitation Vent Pression Humidité
    00:00 +20°C° 0 mm 6 m/s 765 mmHg 38%
    01:00 +19°C° 0 mm 6 m/s 765 mmHg 39%
    02:00 +19°C° 0 mm 6 m/s 764 mmHg 39%
    03:00 +19°C° 0 mm 6 m/s 764 mmHg 42%
    04:00 +17°C° 0 mm 6 m/s 764 mmHg 45%
    05:00 +17°C° 0 mm 6 m/s 764 mmHg 47%
    06:00 +17°C° 0 mm 6 m/s 765 mmHg 47%
    07:00 +17°C° 0 mm 6 m/s 765 mmHg 46%
    08:00 +17°C° 0 mm 6 m/s 765 mmHg 46%
    09:00 +20°C° 0 mm 6 m/s 765 mmHg 42%
    10:00 +22°C° 0 mm 6 m/s 765 mmHg 39%
    11:00 +23°C° 0 mm 6 m/s 765 mmHg 35%
    12:00 +24°C° 0 mm 6 m/s 764 mmHg 34%
    13:00 +26°C° 0 mm 5 m/s 764 mmHg 33%
    14:00 +27°C° 0 mm 5 m/s 763 mmHg 32%
    15:00 +26°C° 0 mm 5 m/s 763 mmHg 33%
    16:00 +26°C° 0 mm 4 m/s 763 mmHg 35%
    17:00 +25°C° 0 mm 4 m/s 763 mmHg 36%
    18:00 +23°C° 0 mm 4 m/s 763 mmHg 37%
    19:00 +23°C° 0 mm 5 m/s 763 mmHg 37%
    20:00 +22°C° 0 mm 5 m/s 763 mmHg 37%
    21:00 +22°C° 0 mm 5 m/s 763 mmHg 37%
    22:00 +21°C° 0 mm 6 m/s 763 mmHg 36%
    23:00 +21°C° 0 mm 6 m/s 763 mmHg 36%

    30 Mai, Jeudi

    Heure Température Précipitation Vent Pression Humidité
    00:00 +21°C° 0 mm 6 m/s 763 mmHg 35%
    01:00 +21°C° 0 mm 7 m/s 763 mmHg 33%
    02:00 +21°C° 0 mm 7 m/s 762 mmHg 32%
    03:00 +20°C° 0 mm 7 m/s 762 mmHg 33%
    04:00 +20°C° 0 mm 6 m/s 762 mmHg 34%
    05:00 +20°C° 0 mm 6 m/s 762 mmHg 34%
    06:00 +19°C° 0.2 mm 6 m/s 763 mmHg 39%
    07:00 +19°C° 0.2 mm 6 m/s 763 mmHg 44%
    08:00 +17°C° 0.2 mm 6 m/s 763 mmHg 49%
    09:00 +19°C° 0 mm 6 m/s 763 mmHg 45%
    10:00 +20°C° 0 mm 6 m/s 763 mmHg 42%
    11:00 +21°C° 0 mm 6 m/s 763 mmHg 39%
    12:00 +23°C° 0 mm 6 m/s 763 mmHg 37%
    13:00 +24°C° 0 mm 6 m/s 762 mmHg 36%
    14:00 +26°C° 0 mm 6 m/s 762 mmHg 34%
    15:00 +26°C° 0 mm 5 m/s 762 mmHg 36%
    16:00 +25°C° 0 mm 4 m/s 762 mmHg 38%
    17:00 +23°C° 0 mm 4 m/s 762 mmHg 40%
    18:00 +23°C° 0 mm 4 m/s 763 mmHg 43%
    19:00 +22°C° 0 mm 4 m/s 763 mmHg 46%
    20:00 +21°C° 0 mm 4 m/s 763 mmHg 50%
    21:00 +21°C° 0 mm 4 m/s 763 mmHg 51%
    22:00 +21°C° 0 mm 4 m/s 763 mmHg 52%
    23:00 +20°C° 0 mm 4 m/s 763 mmHg 54%
    Voir plus